[[{"header":{"parameterUnit":"m.s-1","parameterCategory":1,"la1":30.2991,"la2":30.254,"lo1":-89.0895,"lo2":-89.0444,"dy":0.0017,"dx":0.0017,"nx":28,"ny":28,"refTime":"2025-12-28T03:00:00:Z","depth":0,"parameterNumber":2,"parameterNumberName":"U-component_of_WINDS"},"data":[0,0,0,0,0,0,0,0,0,0,0,0,0,0,0,0,0,0,0,0,0,0,0,0,0,0,0,0,0,0,0,0,0,0,0,0,0,0,0,0,0,0,0,0,0,0,0,0,0,0,0,0,0,0,0,0,0,0,3.3927,3.3927,0,3.3949,3.3949,3.395,3.3898,3.3896,3.3895,3.3893,3.3921,3.3923,3.3925,0,0,0,0,0,0,0,0,0,0,0,0,0,3.3847,3.3849,3.3927,3.3927,3.3928,3.3949,3.3949,3.395,3.3898,3.3896,3.3894,3.3893,3.392,3.3923,3.3926,0,0,0,0,0,0,0,0,0,0,0,0,0,3.3877,3.385,3.3927,3.3905,3.3903,3.3949,3.3949,3.395,3.3899,3.3896,3.3894,3.3892,3.3919,3.3923,3.3926,3.3997,0,0,3.3936,3.3938,0,0,0,0,0,0,0,0,3.3876,3.388,3.3908,3.3906,3.3904,3.3918,3.3931,3.3966,3.3899,3.3901,3.3893,3.389,3.3922,3.3925,3.3935,3.3998,3.3999,3.3937,3.3939,3.394,3.3941,0,0,0,0,0,0,0,3.3874,3.3879,3.3936,3.3908,3.3906,3.3896,3.3897,3.3938,3.3925,3.39,3.3896,3.39,3.3921,3.3932,3.3935,3.4,3.3937,3.394,3.3942,3.3943,3.4125,3.4128,0,0,0,0,0,0,3.3874,3.3878,3.3935,3.3937,3.3883,3.3899,3.3901,3.3916,3.3925,3.3923,3.3902,3.3897,3.3927,3.3931,3.3936,3.4021,3.394,3.3943,3.3945,3.4122,3.4126,3.4129,0,0,0,0,0,0,3.3872,3.3879,3.3934,3.3906,3.3912,3.3903,3.3921,3.3918,3.3929,3.3926,3.3924,3.3915,3.3926,3.3931,3.3982,3.4022,3.3945,3.3948,3.4119,3.4123,3.4127,3.4191,0,0,0,0,0,0,3.387,3.3879,3.3904,3.3907,3.3914,3.3978,3.3923,3.392,3.3934,3.3928,3.3937,3.3936,3.3924,3.3978,3.3986,3.4025,3.3951,3.4116,3.4121,3.4126,3.4186,3.4197,3.4207,0,0,0,0,0,3.3867,3.3921,3.3905,3.3913,3.3945,3.3981,3.3985,3.3968,3.3937,3.3964,3.3962,3.3936,3.4016,3.3983,3.3992,3.4033,3.4113,3.4119,3.4126,3.4181,3.4195,3.4207,0,0,0,0,0,0,3.3924,3.3921,3.3903,3.396,3.3971,3.3972,3.4004,3.3983,3.4004,3.3998,3.3978,3.398,3.4036,3.4039,3.4003,3.4103,3.406,3.4068,3.4099,3.4112,3.4123,3.4121,3.3954,0,0,0,0,0,3.3943,3.3971,3.3967,3.4018,3.4024,3.4013,3.4028,3.4015,3.4026,3.403,3.4032,3.4046,3.4074,3.4093,3.4119,3.4186,3.4189,3.4219,3.423,3.4238,3.4246,3.4285,3.4299,3.4149,3.4149,3.4149,0,0,3.3983,3.3985,3.4003,3.4029,3.4036,3.4067,3.4018,3.4052,3.4076,3.4036,3.4084,3.4087,3.4101,3.4161,3.4188,3.4166,3.4288,3.4246,3.4253,3.4256,3.4293,3.4307,3.432,3.4154,3.4153,3.4152,0,0,3.4071,3.4075,3.4118,3.4126,3.4137,3.413,3.414,3.4145,3.4145,3.4193,3.4165,3.4194,3.4242,3.4254,3.4266,3.4363,3.4341,3.4372,3.4428,3.4466,3.4478,3.4488,3.4525,3.4538,3.438,3.438,3.438,0,3.412,3.4164,3.4143,3.418,3.4194,3.4159,3.4204,3.4213,3.4233,3.4244,3.4219,3.4281,3.4287,3.4351,3.4375,3.4385,3.4399,3.4371,3.4477,3.4488,3.4497,3.4532,3.4545,3.4384,3.4383,3.4383,3.4382,0,3.4224,3.4255,3.4289,3.4308,3.4326,3.4367,3.4355,3.4376,3.4361,3.4358,3.4409,3.4416,3.4444,3.4458,3.4444,3.4521,3.4507,3.448,3.4436,3.4516,3.4548,3.4561,3.4389,3.4388,3.4387,3.4386,0,0,3.4348,3.4356,3.4369,3.4378,3.4389,3.4414,3.4455,3.4481,3.45,3.4515,3.4551,3.4594,3.457,3.4584,3.4572,3.4605,3.4684,3.4574,3.4575,3.4596,3.4772,3.4793,3.4809,3.4669,3.4672,3.4674,3.4772,0,3.4436,3.4505,3.4489,3.4558,3.4588,3.4557,3.4593,3.4605,3.4604,3.4631,3.4631,3.4662,3.4626,3.4635,3.4667,3.4668,3.472,3.466,3.4705,3.4707,3.4703,3.4825,3.4847,3.4939,3.4784,3.4786,3.4788,0,3.4548,3.4568,3.4639,3.4647,3.466,3.4692,3.4716,3.4742,3.4756,3.4753,3.4771,3.4753,3.4797,3.4752,3.4814,3.4774,3.4792,3.4795,3.4799,3.4803,3.4752,3.4834,3.4968,3.4982,3.4807,3.4805,3.4804,0,3.4634,3.4678,3.4727,3.4736,3.4746,3.477,3.4776,3.4787,3.4805,3.4827,3.4839,3.4866,3.4881,3.4904,3.4896,3.4863,3.496,3.4914,3.4961,3.4962,3.4983,3.4982,3.5123,3.4993,3.4993,3.4993,3.4992,0,3.4735,3.4781,3.4766,3.4796,3.4847,3.483,3.4882,3.4884,3.4896,3.4928,3.4903,3.4934,3.492,3.4952,3.4945,3.4999,3.5006,3.5007,3.5005,3.5009,3.501,3.5021,3.5015,3.4996,3.4995,3.4995,3.4994,0,3.4839,3.483,3.4882,3.4888,3.4891,3.4928,3.4935,3.4964,3.4962,3.5003,3.5012,3.5009,3.5045,3.5038,3.5078,3.5074,3.5142,3.5131,3.5137,3.5135,3.5183,3.5179,3.5337,3.5357,3.5213,3.5215,3.5216,0,3.4904,3.4939,3.4949,3.4968,3.4975,3.5006,3.5024,3.501,3.503,3.5051,3.5079,3.5112,3.5138,3.5198,3.52,3.5232,3.5223,3.5276,3.5227,3.5232,3.5226,3.5224,3.5229,3.5286,3.5287,3.5289,3.529,0,3.5022,3.5017,3.5043,3.5068,3.509,3.511,3.5127,3.5145,3.5133,3.5158,3.5193,3.5213,3.5254,3.5289,3.5319,3.5327,3.5308,3.5305,3.5318,3.5324,3.5326,3.5327,3.5164,3.5302,3.53,3.5299,3.5299,3.5298,3.511,3.514,3.5152,3.5183,3.5194,3.5212,3.5241,3.5242,3.5271,3.5303,3.5293,3.5335,3.5352,3.5389,3.5401,3.5435,3.5416,3.5434,3.5439,3.5444,3.5451,3.532,3.5441,3.544,3.544,3.544,3.5439,0,3.5228,3.5234,3.5263,3.5288,3.5313,3.5291,3.531,3.5334,3.537,3.5386,3.5412,3.5455,3.549,3.5496,3.5529,3.5555,3.5547,3.5565,3.5563,3.5566,3.5465,3.5451,3.5571,3.5571,3.5571,3.5571,3.557,3.557,3.5292,3.5342,3.5339,3.5397,3.5403,3.5443,3.5456,3.5473,3.5486,3.5535,3.5563,3.5566,3.558,3.5614,3.5645,3.5647,3.5661,3.5682,3.568,3.5586,3.5573,3.556,3.5547,3.5685,3.5685,3.5778,3.5779,3.578]},{"header":{"parameterUnit":"m.s-1","parameterCategory":1,"la1":30.2991,"la2":30.254,"lo1":-89.0895,"lo2":-89.0444,"dy":0.0017,"dx":0.0017,"nx":28,"ny":28,"refTime":"2025-12-28T03:00:00:Z","depth":0,"parameterNumber":3,"parameterNumberName":"V-component_of_WINDS"},"data":[0,0,0,0,0,0,0,0,0,0,0,0,0,0,0,0,0,0,0,0,0,0,0,0,0,0,0,0,0,0,0,0,0,0,0,0,0,0,0,0,0,0,0,0,0,0,0,0,0,0,0,0,0,0,0,0,0,0,1.5691,1.5692,0,1.5757,1.5758,1.5759,1.5774,1.5774,1.5773,1.5773,1.584,1.5843,1.5845,0,0,0,0,0,0,0,0,0,0,0,0,0,1.558,1.5582,1.5691,1.5692,1.5693,1.5757,1.5758,1.5759,1.5774,1.5774,1.5773,1.5773,1.584,1.5842,1.5845,0,0,0,0,0,0,0,0,0,0,0,0,0,1.5635,1.5582,1.5691,1.5708,1.5711,1.5757,1.5758,1.5759,1.5774,1.5774,1.5773,1.5772,1.5839,1.5842,1.5845,1.5879,0,0,1.5856,1.5857,0,0,0,0,0,0,0,0,1.5632,1.5639,1.5705,1.5707,1.571,1.5757,1.5743,1.5799,1.5775,1.575,1.5773,1.5772,1.5813,1.5819,1.5832,1.5883,1.5885,1.5856,1.5858,1.5859,1.586,0,0,0,0,0,0,0,1.5628,1.5636,1.5717,1.5706,1.5709,1.5713,1.572,1.5754,1.5785,1.5752,1.5754,1.5761,1.5814,1.5829,1.5834,1.5886,1.5856,1.5859,1.5861,1.5862,1.5969,1.597,0,0,0,0,0,0,1.5621,1.5633,1.5715,1.5719,1.5668,1.5716,1.5724,1.5742,1.5784,1.579,1.5762,1.5762,1.5824,1.583,1.5837,1.588,1.5859,1.5862,1.5864,1.5968,1.5969,1.597,0,0,0,0,0,0,1.5619,1.5628,1.5713,1.5677,1.5688,1.5718,1.5739,1.5744,1.5759,1.5791,1.5797,1.5771,1.5824,1.5832,1.5869,1.5882,1.5864,1.5867,1.5967,1.5968,1.5969,1.5966,0,0,0,0,0,0,1.5615,1.5627,1.564,1.5677,1.569,1.5744,1.574,1.5746,1.5765,1.5765,1.5802,1.5807,1.5824,1.5864,1.5872,1.5887,1.587,1.5966,1.5967,1.5969,1.5965,1.5967,1.5969,0,0,0,0,0,1.5611,1.5637,1.5641,1.5651,1.5706,1.5744,1.5752,1.577,1.5766,1.5779,1.58,1.5806,1.5879,1.5867,1.5877,1.5893,1.5965,1.5967,1.5969,1.5964,1.5967,1.5969,0,0,0,0,0,0,1.5601,1.5642,1.5647,1.5685,1.5711,1.5747,1.5764,1.5772,1.58,1.5799,1.5821,1.5829,1.5865,1.5882,1.5868,1.5928,1.5922,1.5926,1.5915,1.5918,1.592,1.5915,1.5872,0,0,0,0,0,1.5603,1.563,1.5664,1.5694,1.5707,1.5734,1.5751,1.5763,1.5791,1.5802,1.5826,1.5853,1.5882,1.5901,1.593,1.5968,1.5976,1.5983,1.5985,1.5986,1.5989,1.6012,1.6015,1.5976,1.5976,1.5976,0,0,1.5607,1.5633,1.5649,1.5693,1.5715,1.5743,1.5743,1.5772,1.5793,1.5807,1.5843,1.5861,1.5893,1.5931,1.5949,1.5947,1.6002,1.5989,1.5989,1.5992,1.6014,1.6018,1.6021,1.5977,1.5977,1.5977,0,0,1.563,1.5652,1.568,1.5702,1.5735,1.5752,1.5759,1.5794,1.5807,1.5844,1.5854,1.588,1.593,1.5952,1.597,1.6002,1.6009,1.6011,1.602,1.6042,1.6045,1.6048,1.606,1.6064,1.6014,1.6014,1.6014,0,1.5632,1.5674,1.5693,1.5723,1.5742,1.5755,1.5784,1.5804,1.5845,1.5858,1.5855,1.5918,1.5941,1.5984,1.5992,1.6006,1.6015,1.6007,1.6043,1.6046,1.6049,1.606,1.6065,1.6014,1.6014,1.6014,1.6014,0,1.5675,1.5704,1.5723,1.5762,1.5783,1.5812,1.5836,1.5855,1.5865,1.5883,1.5921,1.5948,1.5983,1.5994,1.6005,1.604,1.6038,1.6038,1.6033,1.6052,1.6064,1.6068,1.6014,1.6014,1.6014,1.6014,0,0,1.5692,1.5742,1.5749,1.5767,1.5805,1.5828,1.5858,1.5892,1.5908,1.5936,1.5962,1.6004,1.6005,1.6026,1.6038,1.6057,1.6082,1.6056,1.6057,1.606,1.6123,1.6122,1.6127,1.6086,1.6087,1.6088,1.612,0,1.572,1.5773,1.5792,1.5836,1.5864,1.5877,1.5903,1.5929,1.5947,1.5973,1.5993,1.6023,1.6022,1.6034,1.6053,1.6075,1.6095,1.6072,1.6111,1.6112,1.6103,1.6133,1.6132,1.6162,1.6125,1.6126,1.6126,0,1.5759,1.5788,1.5835,1.587,1.5882,1.5905,1.5939,1.5963,1.5994,1.6005,1.6028,1.604,1.6072,1.6064,1.6109,1.6094,1.611,1.6123,1.6125,1.6129,1.612,1.6139,1.6171,1.6176,1.6133,1.6133,1.6132,0,1.5768,1.5818,1.5853,1.5868,1.591,1.5926,1.5944,1.5974,1.5993,1.6022,1.6035,1.6068,1.6086,1.611,1.6131,1.6123,1.6174,1.6168,1.6185,1.6184,1.6195,1.6194,1.6231,1.6205,1.6205,1.6205,1.6205,0,1.5797,1.5825,1.5858,1.5879,1.5912,1.5933,1.5965,1.5983,1.601,1.6035,1.6049,1.6073,1.6098,1.6125,1.6141,1.6176,1.6184,1.6194,1.6198,1.6193,1.6192,1.6205,1.6204,1.6206,1.6206,1.6205,1.6205,0,1.5812,1.5835,1.5874,1.5911,1.592,1.5943,1.5974,1.5996,1.6014,1.6047,1.6055,1.6084,1.6117,1.614,1.6182,1.6193,1.6231,1.6234,1.622,1.6222,1.6238,1.6237,1.6285,1.6293,1.6261,1.6261,1.6262,0,1.5829,1.5852,1.5891,1.5909,1.5927,1.5956,1.5977,1.5999,1.6019,1.6056,1.6073,1.6107,1.6135,1.6187,1.6212,1.6244,1.6249,1.6264,1.6254,1.6248,1.625,1.6248,1.6251,1.6265,1.6265,1.6266,1.6266,0,1.5858,1.5868,1.5897,1.593,1.5954,1.5981,1.6008,1.6022,1.6049,1.6071,1.6105,1.6127,1.617,1.6204,1.6239,1.6258,1.6266,1.6269,1.6274,1.627,1.6261,1.6266,1.6225,1.6268,1.6267,1.6267,1.6267,1.6267,1.5875,1.5896,1.5926,1.5958,1.5981,1.6006,1.6029,1.605,1.6079,1.6116,1.6127,1.6162,1.6193,1.6241,1.626,1.6288,1.6287,1.6295,1.6297,1.6299,1.6299,1.6256,1.6295,1.6295,1.6295,1.6295,1.6295,0,1.5904,1.5925,1.5954,1.5992,1.6017,1.6023,1.6054,1.6074,1.6105,1.6133,1.6161,1.62,1.6233,1.626,1.6294,1.6312,1.6317,1.632,1.6319,1.6323,1.6298,1.629,1.6316,1.6316,1.6315,1.6315,1.6315,1.6315,1.5922,1.5958,1.5972,1.6019,1.604,1.6075,1.6092,1.6116,1.6138,1.6181,1.6209,1.6227,1.6255,1.6291,1.6321,1.6329,1.6341,1.6343,1.6352,1.6327,1.6325,1.6323,1.6315,1.6346,1.6346,1.6374,1.6375,1.6375]}]]